Historical Weather Data
Okotoks
Hwy 2A and Milligan Dr

Date
ET inches
Rain inches
Temperature °C
Humidity
Avg
Wind kmh
Avg
Solar Wm2
Avg
High
Avg
Low
01/01/2021 0.01 0.00 6.3 -2.7 -12.7 67 0.0 31
01/02/2021 0.02 0.00 7.0 3.3 -4.6 50 0.0 43
01/03/2021 0.01 0.00 4.5 0.8 -5.1 53 0.0 55
01/04/2021 0.01 0.00 3.4 -2.4 -10.7 64 0.0 34
01/05/2021 0.01 0.00 3.9 -0.7 -7.1 64 0.0 52
01/06/2021 0.01 0.00 6.4 0.6 -6.1 61 0.0 37
01/07/2021 0.01 0.00 -0.1 -7.1 -13.1 66 0.0 62
01/08/2021 0.01 0.00 -5.5 -12.6 -19.6 67 0.0 66
01/09/2021 0.01 0.00 2.2 -8.7 -16.1 65 0.0 62
01/10/2021 0.01 0.00 2.9 -4.8 -13.6 63 0.0 30
01/11/2021 0.02 0.00 7.1 -0.3 -9.7 56 0.0 46
01/12/2021 0.01 0.00 8.9 4.5 -0.9 53 0.0 39
01/13/2021 0.01 0.00 9.1 2.1 -4.8 58 0.0 32
01/14/2021 0.02 0.00 5.3 -4.0 -9.4 50 0.0 68
01/15/2021 0.01 0.00 7.4 -2.0 -10.9 58 0.0 51
01/16/2021 0.02 0.00 5.3 -2.4 -8.2 55 0.0 66
01/17/2021 0.01 0.00 5.6 -0.7 -6.5 61 0.0 42
01/18/2021 0.01 0.00 2.4 -1.8 -10.1 64 0.0 47
01/19/2021 0.01 0.00 6.0 -4.1 -13.8 60 0.0 35
01/20/2021 0.02 0.00 7.5 -5.2 -13.1 66 0.0 75
01/21/2021 0.01 0.00 0.9 -8.9 -14.3 65 0.0 76
01/22/2021 0.01 0.00 -3.0 -11.2 -16.4 74 0.0 78
01/23/2021 0.01 0.00 -2.5 -11.0 -16.2 74 0.0 74
01/24/2021 0.01 0.00 -10.1 -14.9 -16.2 89 0.0 55
01/25/2021 0.01 0.00 -12.7 -14.9 -16.9 89 0.0 42
01/26/2021 0.01 0.00 -10.6 -14.6 -16.8 89 0.0 60
01/27/2021 0.01 0.00 -9.1 -13.3 -15.2 89 0.0 44
01/28/2021 0.00 0.00 -12.4 -13.9 -15.4 90 0.0 35
01/29/2021 0.01 0.00 -4.4 -13.4 -19.3 83 0.0 89
01/30/2021 0.02 0.00 3.3 -10.7 -19.7 73 0.0 85
01/31/2021 0.02 0.00 6.9 -0.4 -10.8 63 0.0 72
02/01/2021 0.03 0.00 10.2 0.8 -8.7 67 0.0 81
02/02/2021 0.01 0.00 -4.8 -10.7 -14.2 88 0.0 76
02/03/2021 0.01 0.00 -8.9 -15.7 -22.2 81 0.0 46
02/04/2021 0.01 0.00 -0.5 -10.3 -22.6 81 0.0 55
02/05/2021 0.00 0.00 -7.4 -15.9 -21.5 87 0.0 44
02/06/2021 0.01 0.00 -20.6 -22.3 -23.8 79 0.0 75
02/07/2021 0.01 0.00 -21.4 -26.3 -31.0 76 0.0 93
02/08/2021 0.01 0.00 -21.6 -27.0 -35.4 72 0.0 101
02/09/2021 0.01 0.00 -18.9 -29.4 -34.0 67 0.0 105
02/10/2021 0.01 0.00 -21.6 -28.7 -35.4 66 0.0 120
02/11/2021 0.01 0.00 -20.8 -31.4 -37.6 65 0.0 101
02/12/2021 0.01 0.00 -13.6 -22.3 -33.1 72 0.0 103
02/13/2021 0.01 0.00 -17.5 -22.4 -31.1 76 0.0 120
02/14/2021 0.01 0.00 -19.5 -26.0 -33.0 76 0.0 109
02/15/2021 0.01 0.00 -12.1 -23.0 -29.8 73 0.0 122
02/16/2021 0.02 0.00 2.2 -12.9 -26.7 80 0.0 110
02/17/2021 0.02 0.00 -5.8 -9.9 -14.0 71 0.0 75
02/18/2021 0.03 0.00 -1.0 -10.7 -19.5 67 0.0 126
02/19/2021 0.03 0.00 6.4 -3.5 -10.1 49 0.0 124
02/20/2021 0.04 0.00 4.0 -3.7 -12.5 42 0.0 134
02/21/2021 0.03 0.00 7.2 1.3 -8.5 50 0.0 81
02/22/2021 0.04 0.00 9.6 2.2 -3.8 68 0.0 121
02/23/2021 0.03 0.00 1.9 -3.2 -8.9 73 0.0 102
02/24/2021 0.04 0.00 3.5 -6.2 -13.1 58 0.0 143
02/25/2021 0.04 0.00 8.3 -0.5 -6.1 40 0.0 133
02/26/2021 0.02 0.00 -1.8 -7.2 -13.4 70 0.0 97
02/27/2021 0.02 0.00 -5.1 -11.4 -17.1 80 0.0 114
02/28/2021 0.04 0.00 7.4 -3.3 -12.8 61 0.0 139
03/01/2021 0.04 0.00 11.8 4.1 -1.3 48 0.0 105
03/02/2021 0.04 0.00 7.4 -0.6 -7.8 64 0.0 116
03/03/2021 0.05 0.00 9.2 0.8 -6.7 56 0.0 134
03/04/2021 0.06 0.00 12.0 1.5 -6.7 56 0.0 157
03/05/2021 0.05 0.00 13.0 6.6 0.9 34 0.0 122
03/06/2021 0.03 0.00 8.1 2.0 -5.3 61 0.0 90
03/07/2021 0.05 0.00 7.7 -1.3 -9.2 60 0.0 152
03/08/2021 0.05 0.00 6.9 -1.5 -8.5 62 0.0 165
03/09/2021 0.05 0.00 6.2 -1.3 -8.3 66 0.0 168
03/10/2021 0.02 0.00 -3.2 -7.0 -12.4 70 0.0 85
03/11/2021 0.05 0.00 6.2 -5.4 -16.0 65 0.0 178
03/12/2021 0.07 0.00 15.6 2.6 -6.3 49 0.0 165
03/13/2021 0.07 0.00 14.9 4.5 -3.8 51 0.0 171
03/14/2021 0.08 0.00 17.5 6.7 -3.1 40 0.0 178
03/15/2021 0.06 0.00 7.1 0.4 -5.5 57 0.0 175
03/16/2021 0.07 0.00 9.1 -1.0 -9.0 66 0.0 191
03/17/2021 0.08 0.00 14.1 2.1 -8.4 53 0.0 189
03/18/2021 0.09 0.00 16.2 5.8 -5.9 42 0.0 184
03/19/2021 0.08 0.00 14.1 6.7 -1.6 42 0.0 179
03/20/2021 0.08 0.00 10.9 1.4 -8.1 47 0.0 199
03/21/2021 0.06 0.00 10.3 0.9 -4.1 51 0.0 152
03/22/2021 0.05 0.00 7.4 -0.3 -5.7 65 0.0 119
03/23/2021 0.07 0.00 5.1 -1.4 -6.1 72 0.0 210
03/24/2021 0.05 0.00 8.5 2.0 -6.6 58 0.0 114
03/25/2021 0.03 0.00 -0.6 -3.8 -6.2 87 0.0 109
03/26/2021 0.05 0.00 5.4 -1.3 -4.9 81 0.0 149
03/27/2021 0.08 0.00 13.3 3.9 -3.9 61 0.0 187
03/28/2021 0.09 0.00 13.9 6.1 -2.9 49 0.0 178
03/29/2021 0.06 0.00 -1.6 -6.1 -10.1 60 0.0 225
03/30/2021 0.07 0.00 4.7 -4.2 -13.3 51 0.0 231
03/31/2021 0.10 0.00 13.5 3.3 -7.1 42 0.0 221
04/01/2021 0.10 0.00 16.1 8.0 0.0 29 0.0 200
04/02/2021 0.09 0.00 13.2 4.0 -4.7 47 0.0 230
04/03/2021 0.10 0.00 15.6 5.9 -4.7 40 0.0 228
04/04/2021 0.04 0.00 8.1 1.7 -4.5 70 0.0 114
04/05/2021 0.10 0.00 13.6 2.6 -7.6 58 0.0 243
04/06/2021 0.11 0.00 16.2 5.9 -4.7 37 0.0 238
04/07/2021 0.11 0.00 17.1 6.0 -5.2 42 0.0 220
04/08/2021 0.04 0.00 4.8 0.5 -6.4 67 0.0 120
04/09/2021 0.07 0.00 12.4 1.1 -8.3 52 0.0 157
04/10/2021 0.05 0.00 6.2 -0.2 -8.5 52 0.0 121
04/11/2021 0.09 0.00 6.5 -0.8 -7.2 48 0.0 228
04/12/2021 0.07 0.00 4.8 -1.8 -8.3 69 0.0 198
04/13/2021 0.10 0.00 8.1 -1.0 -10.9 52 0.0 267
04/14/2021 0.11 0.00 13.6 2.3 -9.5 44 0.0 267
04/15/2021 0.12 0.00 14.3 4.7 -6.8 41 0.0 269
04/16/2021 0.13 0.00 19.1 7.5 -3.4 32 0.0 272
04/17/2021 0.14 0.00 21.1 9.7 -2.1 29 0.0 267
04/18/2021 0.03 0.00 6.1 -1.3 -7.9 83 0.0 104
04/19/2021 0.08 0.00 4.5 0.0 -5.3 63 0.0 234
04/20/2021 0.12 0.00 11.5 3.0 -6.3 53 0.0 282
04/21/2021 0.17 0.16 19.5 8.4 -6.2 37 6.8 282
04/22/2021 0.05 0.04 7.9 -1.4 -5.0 77 19.7 191
04/23/2021 0.06 0.00 2.9 -2.2 -5.6 67 8.7 153
04/24/2021 0.05 0.00 4.5 -0.4 -4.1 79 9.1 114
04/25/2021 0.05 0.13 4.6 0.6 -1.8 91 5.3 130
04/26/2021 0.16 0.00 13.4 4.8 -6.4 54 7.5 292
04/27/2021 0.18 0.00 16.1 7.0 -2.7 39 11.2 276
04/28/2021 0.18 0.00 19.3 8.3 -5.1 43 9.2 274
04/29/2021 0.15 0.00 20.6 11.1 0.4 49 7.1 207
04/30/2021 0.23 0.00 23.0 12.9 2.1 42 12.5 283
05/01/2021 0.13 0.00 15.2 6.1 -2.0 59 14.2 229
05/02/2021 0.11 0.00 11.0 4.9 -2.3 66 13.8 212
05/03/2021 0.13 0.00 14.7 5.9 -4.2 65 6.9 256
05/04/2021 0.10 0.12 13.6 5.5 -0.8 73 10.2 190
05/05/2021 0.14 0.00 15.2 6.8 -2.2 57 7.1 268
05/06/2021 0.20 0.00 19.1 10.6 0.1 45 16.8 255
05/07/2021 0.12 0.00 16.0 10.0 5.7 45 11.7 132
05/08/2021 0.04 0.37 5.9 2.2 0.0 91 22.1 103
05/09/2021 0.02 0.26 1.5 0.5 -0.2 98 7.8 37
05/10/2021 0.15 0.00 14.6 5.1 -4.1 67 5.2 316
05/11/2021 0.09 0.00 13.1 6.3 -0.2 68 10.7 171
05/12/2021 0.18 0.00 18.4 9.5 -1.8 50 7.4 286
05/13/2021 0.16 0.00 17.5 10.8 4.6 53 12.0 215
05/14/2021 0.18 0.00 20.6 11.5 0.9 53 6.1 306
05/15/2021 0.20 0.00 22.9 13.0 0.5 45 6.4 323
05/16/2021 0.24 0.00 25.0 15.7 5.7 39 9.3 313
05/17/2021 0.23 0.00 26.0 17.2 8.0 38 12.3 243
05/18/2021 0.22 0.00 16.3 9.2 -0.5 48 17.3 349
05/19/2021 0.11 0.00 10.6 3.0 -4.7 62 11.4 239
05/20/2021 0.04 0.04 0.2 -0.7 -1.7 90 8.8 115
05/21/2021 0.10 0.01 10.3 3.4 -1.1 68 4.7 210
05/22/2021 0.13 0.00 13.8 6.0 -2.8 62 8.3 225
05/23/2021 0.03 0.65 6.4 2.9 -0.6 92 8.1 74
05/24/2021 0.06 0.37 9.4 5.5 0.0 90 16.9 114
05/25/2021 0.07 0.09 12.7 8.1 5.1 83 7.9 135
05/26/2021 0.14 0.06 18.4 10.4 4.2 77 13.5 255
05/27/2021 0.23 0.00 21.8 12.8 1.7 51 15.9 287
05/28/2021 0.20 0.00 17.4 10.1 1.5 46 13.5 294
05/29/2021 0.18 0.00 19.4 10.2 -1.8 45 6.1 306
05/30/2021 0.24 0.00 22.5 13.3 1.6 40 8.9 349
05/31/2021 0.24 0.00 24.7 16.5 5.1 40 8.1 350
06/01/2021 0.24 0.00 27.9 18.7 7.6 43 6.3 337
06/02/2021 0.25 0.00 31.1 20.4 9.1 42 6.5 343
06/03/2021 0.30 0.00 31.5 22.2 10.3 38 9.7 351
06/04/2021 0.28 0.00 28.1 20.2 10.8 41 11.9 341
06/05/2021 0.13 0.17 16.9 11.8 6.4 72 9.6 255
06/06/2021 0.14 0.05 15.5 8.8 3.2 71 10.6 245
06/07/2021 0.19 0.00 15.6 8.3 0.2 60 10.3 326
06/08/2021 0.13 0.00 16.4 8.7 0.6 68 7.6 219
06/09/2021 0.07 0.11 14.0 8.3 -0.1 87 7.1 133
06/10/2021 0.08 0.05 12.6 9.5 7.2 81 10.1 140
06/11/2021 0.21 0.00 19.3 11.5 1.5 48 8.2 326
06/12/2021 0.22 0.00 21.5 12.4 1.6 47 9.2 319
06/13/2021 0.26 0.00 29.1 16.6 1.8 46 11.6 304
06/14/2021 0.23 0.00 31.1 21.1 8.9 50 6.5 299
06/15/2021 0.27 0.00 27.5 19.2 12.3 52 15.8 316
06/16/2021 0.27 0.00 21.5 14.8 6.2 40 12.2 362